• In Hungary
  • List of Countries
  • For 7 days
  • Water Temperature
  • Satellite Maps
  • Weather Map
  • News
  • Weather Widgets
  • user-avatar
    Login

    Hourly Weather Primorsko

    Today, 18 October, Wednesday

    Time Temperature Precipitation Wind Pressure Humidity
    00:00 +18°C° 0 mm 1 mps 767 mmHg 54%
    01:00 +18°C° 0 mm 1 mps 767 mmHg 53%
    02:00 +18°C° 0 mm 1 mps 767 mmHg 55%
    03:00 +15°C° 0 mm 0 mps 767 mmHg 55%
    04:00 +15°C° 0 mm 0 mps 766 mmHg 55%
    05:00 +15°C° 0 mm 0 mps 766 mmHg 55%
    06:00 +16°C° 0 mm 0 mps 766 mmHg 54%
    07:00 +17°C° 0 mm 0 mps 766 mmHg 52%
    08:00 +20°C° 0 mm 1 mps 766 mmHg 47%
    09:00 +22°C° 0 mm 1 mps 766 mmHg 42%
    10:00 +24°C° 0 mm 1 mps 766 mmHg 37%
    11:00 +26°C° 0 mm 1 mps 766 mmHg 32%
    12:00 +26°C° 0 mm 1 mps 765 mmHg 31%
    13:00 +27°C° 0 mm 2 mps 765 mmHg 31%
    14:00 +27°C° 0 mm 2 mps 765 mmHg 30%
    15:00 +26°C° 0 mm 2 mps 764 mmHg 37%
    16:00 +24°C° 0 mm 2 mps 764 mmHg 43%
    17:00 +21°C° 0 mm 2 mps 764 mmHg 50%
    18:00 +20°C° 0 mm 2 mps 764 mmHg 53%
    19:00 +19°C° 0 mm 2 mps 764 mmHg 56%
    20:00 +18°C° 0 mm 2 mps 764 mmHg 59%
    21:00 +17°C° 0 mm 2 mps 764 mmHg 58%
    22:00 +18°C° 0 mm 1 mps 764 mmHg 58%
    23:00 +18°C° 0 mm 1 mps 764 mmHg 57%

    Tomorrow, 19 October, Thursday

    Time Temperature Precipitation Wind Pressure Humidity
    00:00 +16°C° 0 mm 1 mps 763 mmHg 57%
    01:00 +16°C° 0 mm 1 mps 763 mmHg 58%
    02:00 +16°C° 0 mm 1 mps 763 mmHg 58%
    03:00 +16°C° 0 mm 1 mps 763 mmHg 58%
    04:00 +15°C° 0 mm 1 mps 763 mmHg 58%
    05:00 +15°C° 0 mm 1 mps 762 mmHg 58%
    06:00 +16°C° 0 mm 1 mps 762 mmHg 56%
    07:00 +18°C° 0 mm 1 mps 763 mmHg 54%
    08:00 +19°C° 0 mm 1 mps 763 mmHg 52%
    09:00 +22°C° 0 mm 1 mps 763 mmHg 47%
    10:00 +24°C° 0 mm 1 mps 763 mmHg 41%
    11:00 +26°C° 0 mm 1 mps 763 mmHg 35%
    12:00 +27°C° 0 mm 1 mps 762 mmHg 34%
    13:00 +27°C° 0 mm 1 mps 762 mmHg 33%
    14:00 +28°C° 0 mm 2 mps 762 mmHg 32%
    15:00 +26°C° 0 mm 2 mps 762 mmHg 38%
    16:00 +24°C° 0 mm 2 mps 761 mmHg 44%
    17:00 +23°C° 0 mm 2 mps 761 mmHg 50%
    18:00 +21°C° 0 mm 2 mps 762 mmHg 54%
    19:00 +20°C° 0 mm 2 mps 762 mmHg 58%
    20:00 +19°C° 0 mm 2 mps 762 mmHg 62%
    21:00 +18°C° 0 mm 2 mps 762 mmHg 62%
    22:00 +18°C° 0 mm 2 mps 762 mmHg 63%
    23:00 +19°C° 0 mm 1 mps 762 mmHg 64%

    Day after tomorrow, 20 October, Friday

    Time Temperature Precipitation Wind Pressure Humidity
    00:00 +18°C° 0 mm 1 mps 762 mmHg 64%
    01:00 +18°C° 0 mm 1 mps 762 mmHg 65%
    02:00 +18°C° 0 mm 1 mps 762 mmHg 66%
    03:00 +16°C° 0 mm 1 mps 762 mmHg 66%
    04:00 +16°C° 0 mm 1 mps 761 mmHg 66%
    05:00 +16°C° 0 mm 1 mps 761 mmHg 67%
    06:00 +18°C° 0 mm 1 mps 762 mmHg 64%
    07:00 +19°C° 0 mm 1 mps 762 mmHg 61%
    08:00 +19°C° 0 mm 1 mps 762 mmHg 59%
    09:00 +22°C° 0 mm 1 mps 762 mmHg 51%
    10:00 +24°C° 0 mm 1 mps 762 mmHg 44%
    11:00 +26°C° 0 mm 1 mps 762 mmHg 37%
    12:00 +27°C° 0 mm 1 mps 762 mmHg 35%
    13:00 +27°C° 0 mm 1 mps 762 mmHg 33%
    14:00 +28°C° 0 mm 1 mps 761 mmHg 31%
    15:00 +26°C° 0 mm 1 mps 761 mmHg 35%
    16:00 +25°C° 0 mm 2 mps 761 mmHg 40%
    17:00 +23°C° 0 mm 2 mps 761 mmHg 45%
    18:00 +21°C° 0 mm 2 mps 761 mmHg 47%
    19:00 +20°C° 0 mm 2 mps 762 mmHg 50%
    20:00 +20°C° 0 mm 1 mps 762 mmHg 53%
    21:00 +20°C° 0 mm 1 mps 762 mmHg 53%
    22:00 +19°C° 0 mm 1 mps 762 mmHg 54%
    23:00 +19°C° 0 mm 1 mps 762 mmHg 54%

    21 October, Saturday

    Time Temperature Precipitation Wind Pressure Humidity
    00:00 +19°C° 0 mm 1 mps 762 mmHg 54%
    01:00 +19°C° 0 mm 1 mps 762 mmHg 54%
    02:00 +18°C° 0 mm 1 mps 762 mmHg 54%
    03:00 +18°C° 0 mm 1 mps 762 mmHg 55%
    04:00 +18°C° 0 mm 1 mps 762 mmHg 56%
    05:00 +16°C° 0 mm 1 mps 762 mmHg 57%
    06:00 +17°C° 0 mm 2 mps 762 mmHg 56%
    07:00 +18°C° 0 mm 2 mps 763 mmHg 56%
    08:00 +19°C° 0 mm 2 mps 763 mmHg 55%
    09:00 +20°C° 0 mm 2 mps 763 mmHg 51%
    10:00 +23°C° 0 mm 2 mps 763 mmHg 46%
    11:00 +25°C° 0 mm 3 mps 763 mmHg 42%
    12:00 +25°C° 0 mm 3 mps 763 mmHg 41%
    13:00 +26°C° 0 mm 3 mps 763 mmHg 41%
    14:00 +26°C° 0 mm 3 mps 762 mmHg 40%
    15:00 +24°C° 0 mm 3 mps 762 mmHg 46%
    16:00 +22°C° 0 mm 3 mps 762 mmHg 52%
    17:00 +20°C° 0 mm 4 mps 762 mmHg 59%
    18:00 +19°C° 0 mm 4 mps 763 mmHg 67%
    19:00 +18°C° 0 mm 4 mps 763 mmHg 75%
    20:00 +17°C° 0 mm 4 mps 763 mmHg 84%
    21:00 +15°C° 0 mm 4 mps 763 mmHg 87%
    22:00 +16°C° 0 mm 3 mps 764 mmHg 91%
    23:00 +16°C° 0 mm 3 mps 764 mmHg 94%

    22 October, Sunday

    Time Temperature Precipitation Wind Pressure Humidity
    00:00 +15°C° 0 mm 4 mps 764 mmHg 94%
    01:00 +15°C° 0 mm 4 mps 764 mmHg 94%
    02:00 +15°C° 0 mm 4 mps 763 mmHg 94%
    03:00 +15°C° 0 mm 4 mps 763 mmHg 94%
    04:00 +15°C° 0 mm 4 mps 763 mmHg 93%
    05:00 +15°C° 0 mm 4 mps 763 mmHg 93%
    06:00 +15°C° 0 mm 4 mps 763 mmHg 91%
    07:00 +17°C° 0 mm 4 mps 764 mmHg 89%
    08:00 +17°C° 0 mm 4 mps 764 mmHg 86%
    09:00 +18°C° 0 mm 4 mps 763 mmHg 80%
    10:00 +19°C° 0 mm 4 mps 763 mmHg 73%
    11:00 +20°C° 0 mm 4 mps 763 mmHg 66%
    12:00 +21°C° 0 mm 4 mps 763 mmHg 63%
    13:00 +21°C° 0 mm 4 mps 762 mmHg 61%
    14:00 +22°C° 0 mm 4 mps 762 mmHg 58%
    15:00 +20°C° 0 mm 4 mps 762 mmHg 65%
    16:00 +19°C° 0 mm 4 mps 761 mmHg 71%
    17:00 +18°C° 0 mm 4 mps 761 mmHg 78%
    18:00 +17°C° 0 mm 3 mps 761 mmHg 83%
    19:00 +16°C° 0 mm 3 mps 762 mmHg 89%
    20:00 +14°C° 0 mm 3 mps 762 mmHg 95%
    21:00 +14°C° 0 mm 3 mps 761 mmHg 96%
    22:00 +14°C° 0 mm 3 mps 761 mmHg 96%
    23:00 +14°C° 0 mm 3 mps 761 mmHg 97%

    23 October, Monday

    Time Temperature Precipitation Wind Pressure Humidity
    00:00 +14°C° 0 mm 3 mps 761 mmHg 97%
    01:00 +14°C° 0 mm 3 mps 760 mmHg 96%
    02:00 +14°C° 0 mm 3 mps 760 mmHg 96%
    03:00 +14°C° 0 mm 3 mps 760 mmHg 96%
    04:00 +14°C° 0 mm 3 mps 760 mmHg 96%
    05:00 +14°C° 0 mm 3 mps 759 mmHg 96%
    06:00 +14°C° 0 mm 3 mps 759 mmHg 93%
    07:00 +14°C° 0 mm 3 mps 759 mmHg 91%
    08:00 +16°C° 0 mm 3 mps 759 mmHg 88%
    09:00 +17°C° 0 mm 4 mps 759 mmHg 80%
    10:00 +18°C° 0 mm 4 mps 759 mmHg 73%
    11:00 +19°C° 0 mm 4 mps 759 mmHg 65%
    12:00 +20°C° 0 mm 4 mps 758 mmHg 65%
    13:00 +20°C° 0 mm 4 mps 758 mmHg 64%
    14:00 +20°C° 0 mm 5 mps 758 mmHg 64%
    15:00 +19°C° 0 mm 5 mps 758 mmHg 69%
    16:00 +17°C° 0 mm 5 mps 758 mmHg 74%
    17:00 +16°C° 0 mm 5 mps 757 mmHg 79%
    18:00 +15°C° 0 mm 5 mps 758 mmHg 83%
    19:00 +15°C° 0 mm 5 mps 758 mmHg 87%
    20:00 +14°C° 0 mm 5 mps 758 mmHg 91%
    21:00 +14°C° 0 mm 5 mps 758 mmHg 91%
    22:00 +14°C° 0 mm 4 mps 758 mmHg 92%
    23:00 +14°C° 0 mm 4 mps 757 mmHg 92%
    Show more